• în Republica Moldova
  • Lista ţărilor
  • Pe 7 zile
  • Temperatura apei
  • Hartă satelitară
  • Meteo pe hartă
  • Widget-uri
  • user-avatar
    Intrare

    Meteo pe oră la Ischgl

    Astăzi, 22 Ianuarie, Duminică

    Timp Temperatura Precipitaţii Vânt Presiune Umiditate
    00:00 -19°C° 0 mm 2 m/s 570 mmHg 88%
    01:00 -19°C° 0 mm 2 m/s 569 mmHg 88%
    02:00 -19°C° 0 mm 2 m/s 569 mmHg 87%
    03:00 -19°C° 0 mm 2 m/s 569 mmHg 87%
    04:00 -19°C° 0 mm 2 m/s 569 mmHg 87%
    05:00 -19°C° 0 mm 2 m/s 569 mmHg 86%
    06:00 -19°C° 0 mm 2 m/s 569 mmHg 86%
    07:00 -19°C° 0 mm 2 m/s 569 mmHg 86%
    08:00 -17°C° 0 mm 2 m/s 570 mmHg 87%
    09:00 -15°C° 0 mm 2 m/s 571 mmHg 88%
    10:00 -12°C° 0 mm 2 m/s 573 mmHg 89%
    11:00 -10°C° 0 mm 2 m/s 573 mmHg 91%
    12:00 -8°C° 0 mm 2 m/s 574 mmHg 92%
    13:00 -6°C° 0 mm 2 m/s 574 mmHg 93%
    14:00 -7°C° 0 mm 2 m/s 574 mmHg 94%
    15:00 -9°C° 0 mm 2 m/s 573 mmHg 94%
    16:00 -10°C° 0 mm 2 m/s 572 mmHg 94%
    17:00 -13°C° 0 mm 2 m/s 571 mmHg 93%
    18:00 -16°C° 0 mm 2 m/s 570 mmHg 92%
    19:00 -18°C° 0 mm 2 m/s 568 mmHg 92%
    20:00 -18°C° 0 mm 2 m/s 568 mmHg 91%
    21:00 -18°C° 0 mm 2 m/s 568 mmHg 90%
    22:00 -19°C° 0 mm 2 m/s 568 mmHg 90%
    23:00 -19°C° 0 mm 2 m/s 568 mmHg 89%

    Mâine, 23 Ianuarie, Luni

    Timp Temperatura Precipitaţii Vânt Presiune Umiditate
    00:00 -19°C° 0 mm 2 m/s 568 mmHg 89%
    01:00 -19°C° 0 mm 2 m/s 568 mmHg 89%
    02:00 -19°C° 0 mm 2 m/s 567 mmHg 89%
    03:00 -19°C° 0 mm 2 m/s 567 mmHg 88%
    04:00 -19°C° 0 mm 2 m/s 567 mmHg 88%
    05:00 -19°C° 0 mm 2 m/s 567 mmHg 86%
    06:00 -19°C° 0 mm 2 m/s 567 mmHg 84%
    07:00 -19°C° 0 mm 2 m/s 566 mmHg 83%
    08:00 -17°C° 0 mm 2 m/s 568 mmHg 85%
    09:00 -14°C° 0 mm 2 m/s 570 mmHg 87%
    10:00 -12°C° 0 mm 2 m/s 571 mmHg 89%
    11:00 -8°C° 0 mm 1 m/s 572 mmHg 90%
    12:00 -6°C° 0 mm 1 m/s 572 mmHg 92%
    13:00 -5°C° 0 mm 0 m/s 572 mmHg 93%
    14:00 -6°C° 0 mm 0 m/s 571 mmHg 94%
    15:00 -8°C° 0 mm 0 m/s 570 mmHg 95%
    16:00 -10°C° 0 mm 0 m/s 569 mmHg 95%
    17:00 -15°C° 0 mm 0 m/s 566 mmHg 96%
    18:00 -19°C° 0 mm 0 m/s 563 mmHg 97%
    19:00 -24°C° 0 mm 1 m/s 560 mmHg 98%
    20:00 -24°C° 0 mm 1 m/s 561 mmHg 98%
    21:00 -24°C° 0 mm 1 m/s 561 mmHg 97%
    22:00 -23°C° 0 mm 1 m/s 561 mmHg 97%
    23:00 -24°C° 0 mm 1 m/s 561 mmHg 96%

    Poimâine, 24 Ianuarie, Marţi

    Timp Temperatura Precipitaţii Vânt Presiune Umiditate
    00:00 -24°C° 0 mm 1 m/s 560 mmHg 95%
    01:00 -24°C° 0 mm 1 m/s 560 mmHg 94%
    02:00 -24°C° 0 mm 1 m/s 560 mmHg 92%
    03:00 -25°C° 0 mm 1 m/s 560 mmHg 90%
    04:00 -25°C° 0 mm 1 m/s 560 mmHg 88%
    05:00 -25°C° 0 mm 1 m/s 560 mmHg 88%
    06:00 -25°C° 0 mm 1 m/s 560 mmHg 87%
    07:00 -25°C° 0 mm 1 m/s 560 mmHg 87%
    08:00 -20°C° 0 mm 1 m/s 564 mmHg 87%
    09:00 -15°C° 0 mm 1 m/s 567 mmHg 86%
    10:00 -10°C° 0 mm 1 m/s 570 mmHg 86%
    11:00 -9°C° 0 mm 1 m/s 571 mmHg 88%
    12:00 -7°C° 0 mm 1 m/s 571 mmHg 89%
    13:00 -6°C° 0 mm 0 m/s 572 mmHg 91%
    14:00 -7°C° 0 mm 1 m/s 571 mmHg 93%
    15:00 -8°C° 0 mm 1 m/s 571 mmHg 95%
    16:00 -10°C° 0 mm 1 m/s 570 mmHg 96%
    17:00 -13°C° 0 mm 1 m/s 568 mmHg 97%
    18:00 -17°C° 0 mm 1 m/s 566 mmHg 98%
    19:00 -20°C° 0 mm 1 m/s 564 mmHg 98%
    20:00 -21°C° 0 mm 1 m/s 564 mmHg 95%
    21:00 -23°C° 0 mm 1 m/s 563 mmHg 91%
    22:00 -24°C° 0 mm 1 m/s 563 mmHg 88%
    23:00 -23°C° 0 mm 1 m/s 563 mmHg 84%

    25 Ianuarie, Miercuri

    Timp Temperatura Precipitaţii Vânt Presiune Umiditate
    00:00 -23°C° 0 mm 1 m/s 563 mmHg 80%
    01:00 -23°C° 0 mm 1 m/s 563 mmHg 76%
    02:00 -23°C° 0 mm 1 m/s 563 mmHg 74%
    03:00 -23°C° 0 mm 1 m/s 563 mmHg 71%
    04:00 -23°C° 0 mm 1 m/s 563 mmHg 69%
    05:00 -23°C° 0 mm 1 m/s 564 mmHg 68%
    06:00 -23°C° 0 mm 1 m/s 564 mmHg 68%
    07:00 -23°C° 0 mm 1 m/s 564 mmHg 67%
    08:00 -18°C° 0 mm 1 m/s 567 mmHg 72%
    09:00 -13°C° 0 mm 1 m/s 571 mmHg 77%
    10:00 -8°C° 0 mm 1 m/s 574 mmHg 82%
    11:00 -6°C° 0 mm 0 m/s 575 mmHg 86%
    12:00 -5°C° 0 mm 0 m/s 575 mmHg 90%
    13:00 -4°C° 0 mm 0 m/s 576 mmHg 93%
    14:00 -6°C° 0 mm 0 m/s 575 mmHg 92%
    15:00 -7°C° 0 mm 0 m/s 573 mmHg 91%
    16:00 -9°C° 0 mm 0 m/s 572 mmHg 91%
    17:00 -13°C° 0 mm 0 m/s 570 mmHg 92%
    18:00 -17°C° 0 mm 0 m/s 567 mmHg 94%
    19:00 -22°C° 0 mm 0 m/s 565 mmHg 96%
    20:00 -21°C° 0 mm 0 m/s 565 mmHg 92%
    21:00 -21°C° 0 mm 1 m/s 566 mmHg 88%
    22:00 -20°C° 0 mm 1 m/s 566 mmHg 84%
    23:00 -19°C° 0 mm 1 m/s 567 mmHg 82%

    26 Ianuarie, Joi

    Timp Temperatura Precipitaţii Vânt Presiune Umiditate
    00:00 -17°C° 0 mm 1 m/s 568 mmHg 81%
    01:00 -18°C° 0 mm 2 m/s 570 mmHg 80%
    02:00 -17°C° 0 mm 2 m/s 570 mmHg 80%
    03:00 -17°C° 0 mm 2 m/s 570 mmHg 79%
    04:00 -17°C° 0 mm 2 m/s 570 mmHg 79%
    05:00 -17°C° 0 mm 2 m/s 570 mmHg 78%
    06:00 -17°C° 0 mm 2 m/s 570 mmHg 77%
    07:00 -17°C° 0 mm 2 m/s 570 mmHg 76%
    08:00 -14°C° 0 mm 2 m/s 572 mmHg 79%
    09:00 -10°C° 0 mm 2 m/s 574 mmHg 82%
    10:00 -6°C° 0 mm 1 m/s 576 mmHg 86%
    11:00 -4°C° 0 mm 1 m/s 576 mmHg 89%
    12:00 -3°C° 0 mm 1 m/s 577 mmHg 92%
    13:00 -1°C° 0 mm 1 m/s 577 mmHg 95%
    14:00 -3°C° 0 mm 1 m/s 576 mmHg 92%
    15:00 -4°C° 0 mm 1 m/s 575 mmHg 89%
    16:00 -6°C° 0 mm 1 m/s 575 mmHg 86%
    17:00 -9°C° 0 mm 1 m/s 573 mmHg 83%
    18:00 -11°C° 0 mm 1 m/s 572 mmHg 81%
    19:00 -14°C° 0 mm 1 m/s 570 mmHg 79%
    20:00 -15°C° 0 mm 2 m/s 570 mmHg 77%
    21:00 -15°C° 0 mm 2 m/s 571 mmHg 76%
    22:00 -14°C° 0 mm 2 m/s 571 mmHg 74%
    23:00 -14°C° 0 mm 2 m/s 571 mmHg 74%

    27 Ianuarie, Vineri

    Timp Temperatura Precipitaţii Vânt Presiune Umiditate
    00:00 -14°C° 0 mm 2 m/s 571 mmHg 75%
    01:00 -14°C° 0 mm 2 m/s 571 mmHg 75%
    02:00 -14°C° 0 mm 2 m/s 571 mmHg 75%
    03:00 -14°C° 0 mm 2 m/s 571 mmHg 75%
    04:00 -14°C° 0 mm 2 m/s 571 mmHg 75%
    05:00 -15°C° 0 mm 2 m/s 571 mmHg 75%
    06:00 -15°C° 0 mm 2 m/s 571 mmHg 75%
    07:00 -15°C° 0 mm 2 m/s 570 mmHg 74%
    08:00 -13°C° 0 mm 2 m/s 572 mmHg 78%
    09:00 -10°C° 0 mm 2 m/s 573 mmHg 83%
    10:00 -7°C° 0 mm 1 m/s 574 mmHg 87%
    11:00 -4°C° 0 mm 1 m/s 575 mmHg 89%
    12:00 -3°C° 0 mm 1 m/s 575 mmHg 92%
    13:00 -3°C° 0 mm 0 m/s 576 mmHg 94%
    14:00 -3°C° 0 mm 1 m/s 575 mmHg 93%
    15:00 -4°C° 0 mm 1 m/s 575 mmHg 92%
    16:00 -6°C° 0 mm 1 m/s 574 mmHg 92%
    17:00 -8°C° 0 mm 1 m/s 574 mmHg 92%
    18:00 -11°C° 0 mm 1 m/s 573 mmHg 92%
    19:00 -13°C° 0 mm 1 m/s 572 mmHg 91%
    20:00 -14°C° 0 mm 1 m/s 571 mmHg 92%
    21:00 -15°C° 0 mm 1 m/s 571 mmHg 92%
    22:00 -16°C° 0 mm 1 m/s 571 mmHg 92%
    23:00 -16°C° 0 mm 1 m/s 570 mmHg 90%
    Arată mai mult